Voltar ao catálogo

HULIANWANG DIGUI-73

AtivoComunicaçõesLEO
NORAD 65305·PAYLOAD·🇨🇳 China

Lançado Aug 25, 2025 de Wenchang Space Launch Site

Loading…

Próximas Passagens (próximas 24 horas)

TLE

AtualizadoSource: Space-Track

Época: Sep 14, 2026, 23:26 UTC

1 65305U 25187A   26257.97687990 -.00000100  00000-0  51089-4 0  9998
2 65305  50.0037 243.8560 0000658 336.2216  23.8626 13.29326309 51647

Acompanhe HULIANWANG DIGUI-73 em tempo real com AllMySat

Download on the App Store